Time,TemperatureF,DewpointF,PressureIn,WindDirection,WindDirectionDegrees,WindSpeedMPH,WindSpeedGustMPH,Humidity,HourlyPrecipIn,Conditions,Clouds,dailyrainin,SoftwareType,DateUTC
2013-06-02 00:01:00,73.2,67.7,29.96,SE,136,0.0,1.0,83,0.00,,SCT075,0.00,VWS V14.01,2013-06-02 04:01:00,
2013-06-02 00:06:00,73.2,68.1,29.96,ESE,116,1.0,1.0,84,0.00,,SCT075,0.00,VWS V14.01,2013-06-02 04:06:00,
2013-06-02 00:11:00,73.4,67.9,29.96,East,99,0.0,2.0,83,0.00,,SCT075,0.00,VWS V14.01,2013-06-02 04:11:00,
2013-06-02 00:16:00,73.3,67.8,29.97,East,99,0.0,0.0,83,0.00,,SCT075,0.00,VWS V14.01,2013-06-02 04:16:00,
2013-06-02 00:21:00,73.1,68.0,29.97,East,98,0.0,0.0,84,0.00,,SCT075,0.00,VWS V14.01,2013-06-02 04:21:00,
2013-06-02 00:26:00,72.9,67.4,29.96,East,98,0.0,0.0,83,0.00,,SCT075,0.00,VWS V14.01,2013-06-02 04:26:00,
2013-06-02 00:31:00,73.0,67.5,29.96,East,98,0.0,0.0,83,0.00,,SCT075,0.00,VWS V14.01,2013-06-02 04:31:00,
2013-06-02 00:36:00,72.9,67.4,29.95,ESE,114,0.0,1.0,83,0.00,,SCT075,0.00,VWS V14.01,2013-06-02 04:36:00,
2013-06-02 00:41:00,72.9,67.4,29.95,ESE,114,0.0,0.0,83,0.00,,SCT075,0.00,VWS V14.01,2013-06-02 04:41:00,
2013-06-02 00:46:00,73.0,67.5,29.94,ESE,113,0.0,1.0,83,0.00,,SCT075,0.00,VWS V14.01,2013-06-02 04:46:00,
2013-06-02 00:51:00,72.9,67.4,29.95,ESE,113,0.0,0.0,83,0.00,,SCT075,0.00,VWS V14.01,2013-06-02 04:51:00,
2013-06-02 00:56:00,72.8,67.3,29.94,ESE,115,0.0,1.0,83,0.00,,SCT075,0.00,VWS V14.01,2013-06-02 04:56:00,
2013-06-02 01:01:00,72.7,67.2,29.95,ESE,115,0.0,0.0,83,0.00,,SCT075,0.00,VWS V14.01,2013-06-02 05:01:00,
2013-06-02 01:06:00,72.6,67.2,29.95,ESE,115,0.0,0.0,83,0.00,,SCT075,0.00,VWS V14.01,2013-06-02 05:06:00,
2013-06-02 01:11:00,72.5,67.4,29.95,ESE,115,0.0,0.0,84,0.00,,SCT075,0.00,VWS V14.01,2013-06-02 05:11:00,
2013-06-02 01:16:00,72.4,67.6,29.95,ESE,116,0.0,0.0,85,0.00,,SCT075,0.00,VWS V14.01,2013-06-02 05:16:00,
2013-06-02 01:21:00,72.4,67.6,29.95,ESE,116,0.0,0.0,85,0.00,,SCT075,0.00,VWS V14.01,2013-06-02 05:21:00,
2013-06-02 01:26:00,72.4,67.6,29.96,ESE,115,0.0,0.0,85,0.00,,SCT075,0.00,VWS V14.01,2013-06-02 05:26:00,
2013-06-02 01:31:00,72.5,67.7,29.95,ESE,115,0.0,0.0,85,0.00,,SCT075,0.00,VWS V14.01,2013-06-02 05:31:00,
2013-06-02 01:36:00,72.6,67.8,29.96,ESE,115,0.0,0.0,85,0.00,,SCT075,0.00,VWS V14.01,2013-06-02 05:36:00,
2013-06-02 01:41:00,72.6,67.8,29.96,ESE,115,0.0,0.0,85,0.00,,SCT075,0.00,VWS V14.01,2013-06-02 05:41:00,
2013-06-02 01:46:00,72.7,67.6,29.96,ESE,116,0.0,0.0,84,0.00,,SCT075,0.00,VWS V14.01,2013-06-02 05:46:00,
2013-06-02 01:51:00,72.8,67.7,29.96,South,188,0.0,1.0,84,0.00,,SCT075,0.00,VWS V14.01,2013-06-02 05:51:00,
2013-06-02 01:56:00,73.1,67.6,29.96,South,169,0.0,1.0,83,0.00,,SCT075,0.00,VWS V14.01,2013-06-02 05:56:00,
2013-06-02 02:01:00,73.5,67.7,29.96,South,174,0.0,0.0,82,0.00,,SCT075,0.00,VWS V14.01,2013-06-02 06:01:00,
2013-06-02 02:06:00,73.8,67.6,29.96,East,80,0.0,1.0,81,0.00,,SCT075,0.00,VWS V14.01,2013-06-02 06:06:00,
2013-06-02 02:11:00,73.9,67.7,29.96,SSE,167,0.0,1.0,81,0.00,,SCT075,0.00,VWS V14.01,2013-06-02 06:11:00,
2013-06-02 02:16:00,74.2,67.6,29.96,WSW,242,0.0,2.0,80,0.00,,SCT075,0.00,VWS V14.01,2013-06-02 06:16:00,
2013-06-02 02:21:00,74.4,67.8,29.96,SW,221,1.0,3.0,80,0.00,,SCT075,0.00,VWS V14.01,2013-06-02 06:21:00,
2013-06-02 02:26:00,74.5,67.9,29.96,SW,219,0.0,3.0,80,0.00,,SCT075,0.00,VWS V14.01,2013-06-02 06:26:00,
2013-06-02 02:31:00,74.4,68.2,29.96,South,179,1.0,2.0,81,0.00,,SCT075,0.00,VWS V14.01,2013-06-02 06:31:00,
2013-06-02 02:36:00,74.1,68.3,29.95,SW,214,3.0,3.0,82,0.00,,SCT075,0.00,VWS V14.01,2013-06-02 06:36:00,
2013-06-02 02:41:00,73.6,68.5,29.95,South,187,0.0,4.0,84,0.01,,SCT075,0.01,VWS V14.01,2013-06-02 06:41:00,
2013-06-02 02:46:00,72.9,68.1,29.95,SW,236,0.0,3.0,85,0.01,,SCT075,0.01,VWS V14.01,2013-06-02 06:46:00,
2013-06-02 02:51:00,72.4,68.0,29.94,WSW,240,2.0,3.0,86,0.01,,SCT075,0.01,VWS V14.01,2013-06-02 06:51:00,
2013-06-02 02:56:00,72.2,68.1,29.94,SW,226,3.0,6.0,87,0.01,,SCT075,0.01,VWS V14.01,2013-06-02 06:56:00,
2013-06-02 03:01:00,72.1,68.0,29.94,SSE,149,0.0,3.0,87,0.01,,SCT075,0.01,VWS V14.01,2013-06-02 07:01:00,
2013-06-02 03:06:00,72.1,67.7,29.94,SSW,193,0.0,6.0,86,0.01,,SCT075,0.01,VWS V14.01,2013-06-02 07:06:00,
2013-06-02 03:11:00,72.2,67.8,29.94,South,183,2.0,3.0,86,0.01,,SCT075,0.01,VWS V14.01,2013-06-02 07:11:00,
2013-06-02 03:16:00,72.3,67.9,29.94,SSW,207,0.0,3.0,86,0.01,,SCT075,0.01,VWS V14.01,2013-06-02 07:16:00,
2013-06-02 03:21:00,72.2,67.8,29.94,SW,233,1.0,2.0,86,0.01,,SCT075,0.01,VWS V14.01,2013-06-02 07:21:00,
2013-06-02 03:26:00,72.1,67.7,29.94,SW,217,2.0,2.0,86,0.01,,SCT075,0.01,VWS V14.01,2013-06-02 07:26:00,
2013-06-02 03:31:00,72.0,67.6,29.94,WSW,242,2.0,2.0,86,0.01,,SCT075,0.01,VWS V14.01,2013-06-02 07:31:00,
2013-06-02 03:36:00,72.1,67.3,29.95,SW,224,0.0,2.0,85,0.01,,SCT075,0.01,VWS V14.01,2013-06-02 07:36:00,
2013-06-02 03:41:00,72.2,67.4,29.95,South,169,1.0,3.0,85,0.01,,SCT075,0.01,VWS V14.01,2013-06-02 07:41:00,
2013-06-02 03:46:00,71.8,67.1,29.95,South,172,0.0,1.0,85,0.00,,SCT075,0.01,VWS V14.01,2013-06-02 07:46:00,
2013-06-02 03:51:00,71.8,67.1,29.95,South,172,0.0,0.0,85,0.00,,SCT075,0.01,VWS V14.01,2013-06-02 07:51:00,
2013-06-02 03:56:00,71.8,67.1,29.94,South,172,0.0,0.0,85,0.00,,SCT075,0.01,VWS V14.01,2013-06-02 07:56:00,
2013-06-02 04:01:00,71.8,67.1,29.94,South,172,0.0,0.0,85,0.00,,SCT075,0.01,VWS V14.01,2013-06-02 08:01:00,
2013-06-02 04:06:00,71.8,67.1,29.94,South,172,0.0,0.0,85,0.00,,SCT075,0.01,VWS V14.01,2013-06-02 08:06:00,
2013-06-02 04:11:00,71.8,67.1,29.94,South,172,0.0,0.0,85,0.00,,SCT075,0.01,VWS V14.01,2013-06-02 08:11:00,
2013-06-02 04:16:00,71.8,67.1,29.94,South,172,0.0,0.0,85,0.00,,SCT075,0.01,VWS V14.01,2013-06-02 08:16:00,
2013-06-02 04:21:00,71.8,67.1,29.95,South,172,0.0,0.0,85,0.00,,SCT075,0.01,VWS V14.01,2013-06-02 08:21:00,
2013-06-02 04:26:00,71.8,67.1,29.95,South,172,0.0,0.0,85,0.00,,SCT075,0.01,VWS V14.01,2013-06-02 08:26:00,
2013-06-02 04:31:00,71.8,67.1,29.95,South,172,0.0,0.0,85,0.00,,SCT075,0.01,VWS V14.01,2013-06-02 08:31:00,
2013-06-02 04:36:00,71.8,67.1,29.95,South,172,0.0,0.0,85,0.00,,SCT075,0.01,VWS V14.01,2013-06-02 08:36:00,
2013-06-02 04:41:00,71.8,67.1,29.94,South,172,0.0,0.0,85,0.00,,SCT075,0.01,VWS V14.01,2013-06-02 08:41:00,
2013-06-02 04:46:00,71.8,67.1,29.94,South,172,0.0,0.0,85,0.00,,SCT075,0.01,VWS V14.01,2013-06-02 08:46:00,
2013-06-02 04:51:00,71.8,67.1,29.94,South,172,0.0,0.0,85,0.00,,SCT075,0.01,VWS V14.01,2013-06-02 08:51:00,
2013-06-02 04:56:00,71.8,67.1,29.94,South,172,0.0,0.0,85,0.00,,SCT075,0.01,VWS V14.01,2013-06-02 08:56:00,
2013-06-02 05:01:00,71.8,67.1,29.94,South,172,0.0,0.0,85,0.00,,SCT075,0.01,VWS V14.01,2013-06-02 09:01:00,
2013-06-02 05:06:00,71.8,67.1,29.94,South,172,0.0,0.0,85,0.00,,SCT075,0.01,VWS V14.01,2013-06-02 09:06:00,
2013-06-02 05:11:00,71.8,67.1,29.94,South,172,0.0,0.0,85,0.00,,SCT075,0.01,VWS V14.01,2013-06-02 09:11:00,
2013-06-02 05:16:00,71.8,67.1,29.94,South,172,0.0,0.0,85,0.00,,SCT075,0.01,VWS V14.01,2013-06-02 09:16:00,
2013-06-02 05:21:00,71.8,67.1,29.94,South,172,0.0,0.0,85,0.00,,SCT075,0.01,VWS V14.01,2013-06-02 09:21:00,
2013-06-02 05:26:00,71.8,67.1,29.94,South,172,0.0,0.0,85,0.00,,SCT075,0.01,VWS V14.01,2013-06-02 09:26:00,
2013-06-02 05:31:00,71.8,67.1,29.94,South,172,0.0,0.0,85,0.00,,SCT075,0.01,VWS V14.01,2013-06-02 09:31:00,
2013-06-02 05:36:00,71.8,67.1,29.94,South,172,0.0,0.0,85,0.00,,SCT075,0.01,VWS V14.01,2013-06-02 09:36:00,
2013-06-02 05:41:00,71.8,67.1,29.94,South,172,0.0,0.0,85,0.00,,SCT075,0.01,VWS V14.01,2013-06-02 09:41:00,
2013-06-02 05:46:00,71.8,67.1,29.94,South,172,0.0,0.0,85,0.00,,SCT075,0.01,VWS V14.01,2013-06-02 09:46:00,
2013-06-02 05:51:00,71.8,67.1,29.94,South,172,0.0,0.0,85,0.00,,SCT075,0.01,VWS V14.01,2013-06-02 09:51:00,
2013-06-02 05:56:00,71.8,67.1,29.94,South,172,0.0,0.0,85,0.00,,SCT075,0.01,VWS V14.01,2013-06-02 09:56:00,
2013-06-02 06:01:00,71.8,67.1,29.94,South,172,0.0,0.0,85,0.00,,SCT075,0.01,VWS V14.01,2013-06-02 10:01:00,
2013-06-02 06:06:00,71.8,67.1,29.94,South,172,0.0,0.0,85,0.00,,SCT075,0.01,VWS V14.01,2013-06-02 10:06:00,
2013-06-02 06:11:00,71.8,67.1,29.94,South,172,0.0,0.0,85,0.00,,SCT075,0.01,VWS V14.01,2013-06-02 10:11:00,
2013-06-02 06:16:00,71.8,67.1,29.94,South,172,0.0,0.0,85,0.00,,SCT075,0.01,VWS V14.01,2013-06-02 10:16:00,
2013-06-02 06:21:00,71.8,67.1,29.94,South,172,0.0,0.0,85,0.00,,SCT075,0.01,VWS V14.01,2013-06-02 10:21:00,
2013-06-02 06:26:00,71.8,67.1,29.94,South,172,0.0,0.0,85,0.00,,SCT075,0.01,VWS V14.01,2013-06-02 10:26:00,
2013-06-02 06:31:00,71.8,67.1,29.94,South,172,0.0,0.0,85,0.00,,SCT075,0.01,VWS V14.01,2013-06-02 10:31:00,
2013-06-02 06:36:00,71.8,67.1,29.94,South,172,0.0,0.0,85,0.00,,SCT075,0.01,VWS V14.01,2013-06-02 10:36:00,
2013-06-02 06:41:00,71.8,67.1,29.94,South,172,0.0,0.0,85,0.00,,SCT075,0.01,VWS V14.01,2013-06-02 10:41:00,
2013-06-02 06:46:00,71.8,67.1,29.94,South,172,0.0,0.0,85,0.00,,SCT075,0.01,VWS V14.01,2013-06-02 10:46:00,
2013-06-02 06:51:00,71.8,67.1,29.94,South,172,0.0,0.0,85,0.00,,SCT075,0.01,VWS V14.01,2013-06-02 10:51:00,
2013-06-02 06:56:00,71.8,67.1,29.95,South,172,0.0,0.0,85,0.00,,SCT075,0.01,VWS V14.01,2013-06-02 10:56:00,
2013-06-02 07:01:00,71.8,67.1,29.95,South,172,0.0,0.0,85,0.00,,SCT075,0.01,VWS V14.01,2013-06-02 11:01:00,
2013-06-02 07:06:00,71.8,67.1,29.95,South,172,0.0,0.0,85,0.00,,BKN035,0.01,VWS V14.01,2013-06-02 11:06:00,
2013-06-02 07:10:00,71.8,67.1,29.95,South,172,0.0,0.0,85,0.00,,BKN035,0.01,VWS V14.01,2013-06-02 11:10:00,
2013-06-02 07:16:00,71.8,67.1,29.95,South,172,0.0,0.0,85,0.00,,BKN035,0.01,VWS V14.01,2013-06-02 11:16:00,
2013-06-02 07:21:00,71.8,67.1,29.95,South,172,0.0,0.0,85,0.00,,BKN035,0.01,VWS V14.01,2013-06-02 11:21:00,
2013-06-02 07:26:00,71.8,67.1,29.95,South,172,0.0,0.0,85,0.00,,BKN035,0.01,VWS V14.01,2013-06-02 11:26:00,
2013-06-02 07:31:00,71.8,67.1,29.95,South,172,0.0,0.0,85,0.00,,BKN035,0.01,VWS V14.01,2013-06-02 11:31:00,
2013-06-02 07:36:00,71.8,67.1,29.95,South,172,0.0,0.0,85,0.00,,BKN035,0.01,VWS V14.01,2013-06-02 11:36:00,
2013-06-02 07:41:00,71.3,67.6,29.95,SW,226,0.0,1.0,88,0.00,,BKN035,0.01,VWS V14.01,2013-06-02 11:41:00,
2013-06-02 07:46:00,71.4,67.7,29.95,SW,226,0.0,2.0,88,0.00,,BKN035,0.01,VWS V14.01,2013-06-02 11:46:00,
2013-06-02 07:51:00,71.5,67.8,29.94,East,84,0.0,5.0,88,0.00,,BKN035,0.01,VWS V14.01,2013-06-02 11:51:00,
2013-06-02 07:56:00,71.6,67.5,29.94,SW,228,0.0,2.0,87,0.00,,BKN035,0.01,VWS V14.01,2013-06-02 11:56:00,
2013-06-02 08:01:00,71.7,67.6,29.94,SSW,207,0.0,2.0,87,0.00,,BKN035,0.01,VWS V14.01,2013-06-02 12:01:00,
2013-06-02 08:06:00,71.8,67.7,29.94,SW,231,0.0,2.0,87,0.00,,BKN018,0.01,VWS V14.01,2013-06-02 12:06:00,
2013-06-02 08:11:00,71.8,67.7,29.94,SSW,206,0.0,2.0,87,0.00,,BKN018,0.01,VWS V14.01,2013-06-02 12:11:00,
2013-06-02 08:16:00,71.9,67.8,29.94,SSW,197,1.0,2.0,87,0.00,,BKN018,0.01,VWS V14.01,2013-06-02 12:16:00,
2013-06-02 08:21:00,71.8,67.7,29.94,SSW,198,0.0,0.0,87,0.00,,BKN018,0.01,VWS V14.01,2013-06-02 12:21:00,
2013-06-02 08:26:00,71.8,67.7,29.94,SSW,204,0.0,0.0,87,0.00,,BKN018,0.01,VWS V14.01,2013-06-02 12:26:00,
2013-06-02 08:31:00,71.9,67.8,29.94,SW,224,0.0,1.0,87,0.00,,BKN018,0.01,VWS V14.01,2013-06-02 12:31:00,
2013-06-02 08:36:00,72.1,68.0,29.94,SE,136,0.0,2.0,87,0.00,,BKN018,0.01,VWS V14.01,2013-06-02 12:36:00,
2013-06-02 08:41:00,72.2,68.1,29.94,SW,231,0.0,3.0,87,0.00,,BKN018,0.01,VWS V14.01,2013-06-02 12:41:00,
2013-06-02 08:46:00,72.3,67.9,29.93,WSW,240,0.0,3.0,86,0.00,,BKN018,0.01,VWS V14.01,2013-06-02 12:46:00,
2013-06-02 08:51:00,72.4,68.0,29.93,SW,221,0.0,3.0,86,0.00,,BKN018,0.01,VWS V14.01,2013-06-02 12:51:00,
2013-06-02 08:56:00,72.5,68.1,29.94,SW,235,0.0,1.0,86,0.00,,BKN018,0.01,VWS V14.01,2013-06-02 12:56:00,
2013-06-02 09:01:00,72.7,68.3,29.93,SSE,162,0.0,3.0,86,0.00,,BKN018,0.01,VWS V14.01,2013-06-02 13:01:00,
2013-06-02 09:06:00,72.9,68.5,29.93,NNW,343,0.0,1.0,86,0.00,,BKN016,0.01,VWS V14.01,2013-06-02 13:06:00,
2013-06-02 09:11:00,72.9,68.5,29.94,SSW,210,0.0,1.0,86,0.00,,BKN016,0.01,VWS V14.01,2013-06-02 13:11:00,
2013-06-02 09:16:00,72.9,68.5,29.94,SW,233,0.0,3.0,86,0.00,,BKN016,0.01,VWS V14.01,2013-06-02 13:16:00,
2013-06-02 09:21:00,72.8,68.4,29.94,SW,223,1.0,1.0,86,0.00,,BKN016,0.01,VWS V14.01,2013-06-02 13:21:00,
2013-06-02 09:26:00,73.0,68.6,29.94,SW,226,0.0,0.0,86,0.00,,BKN016,0.01,VWS V14.01,2013-06-02 13:26:00,
2013-06-02 09:31:00,73.6,69.2,29.94,SW,225,0.0,3.0,86,0.00,,BKN016,0.01,VWS V14.01,2013-06-02 13:31:00,
2013-06-02 09:36:00,74.1,69.0,29.93,SW,227,3.0,3.0,84,0.00,,BKN016,0.01,VWS V14.01,2013-06-02 13:36:00,
2013-06-02 09:41:00,74.5,69.7,29.93,SSW,203,1.0,3.0,85,0.00,,BKN016,0.01,VWS V14.01,2013-06-02 13:41:00,
2013-06-02 09:46:00,74.9,69.7,29.93,SSE,154,0.0,1.0,84,0.00,,BKN016,0.01,VWS V14.01,2013-06-02 13:46:00,
2013-06-02 09:51:00,74.6,69.1,29.94,ENE,65,1.0,3.0,83,0.00,,BKN016,0.01,VWS V14.01,2013-06-02 13:51:00,
2013-06-02 09:56:00,74.6,69.4,29.93,SSW,197,0.0,2.0,84,0.00,,BKN016,0.01,VWS V14.01,2013-06-02 13:56:00,
2013-06-02 10:01:00,75.0,69.8,29.94,WSW,248,0.0,2.0,84,0.00,,BKN016,0.01,VWS V14.01,2013-06-02 14:01:00,
2013-06-02 10:06:00,75.7,69.8,29.93,SSW,195,0.0,2.0,82,0.00,,BKN270,0.01,VWS V14.01,2013-06-02 14:06:00,
2013-06-02 10:11:00,76.3,70.4,29.94,SW,215,1.0,1.0,82,0.00,,BKN270,0.01,VWS V14.01,2013-06-02 14:11:00,
2013-06-02 10:16:00,76.4,70.5,29.94,SW,226,0.0,2.0,82,0.00,,BKN270,0.01,VWS V14.01,2013-06-02 14:16:00,
2013-06-02 10:21:00,76.5,70.6,29.94,South,183,1.0,4.0,82,0.00,,BKN270,0.01,VWS V14.01,2013-06-02 14:21:00,
2013-06-02 10:26:00,76.6,70.3,29.94,SW,226,1.0,3.0,81,0.00,,BKN270,0.01,VWS V14.01,2013-06-02 14:26:00,
2013-06-02 10:31:00,76.6,70.3,29.94,SW,215,0.0,3.0,81,0.00,,BKN270,0.01,VWS V14.01,2013-06-02 14:31:00,
2013-06-02 10:36:00,76.8,70.9,29.93,SSW,212,0.0,4.0,82,0.00,,BKN270,0.01,VWS V14.01,2013-06-02 14:36:00,
2013-06-02 10:41:00,77.8,70.8,29.93,SW,236,1.0,2.0,79,0.00,,BKN270,0.01,VWS V14.01,2013-06-02 14:41:00,
2013-06-02 10:46:00,78.0,71.0,29.93,South,176,0.0,2.0,79,0.00,,BKN270,0.01,VWS V14.01,2013-06-02 14:46:00,
2013-06-02 10:51:00,78.5,71.4,29.93,South,176,1.0,1.0,79,0.00,,BKN270,0.01,VWS V14.01,2013-06-02 14:51:00,
2013-06-02 10:56:00,78.4,71.0,29.93,SW,235,1.0,2.0,78,0.00,,BKN270,0.01,VWS V14.01,2013-06-02 14:56:00,
2013-06-02 11:01:00,78.3,71.3,29.93,WSW,246,0.0,3.0,79,0.00,,BKN270,0.01,VWS V14.01,2013-06-02 15:01:00,
2013-06-02 11:06:00,78.9,71.8,29.93,WSW,245,0.0,1.0,79,0.00,,BKN026,0.01,VWS V14.01,2013-06-02 15:06:00,
2013-06-02 11:11:00,79.4,71.6,29.93,West,259,1.0,1.0,77,0.00,,BKN026,0.01,VWS V14.01,2013-06-02 15:11:00,
2013-06-02 11:16:00,79.0,71.6,29.93,SSW,211,0.0,2.0,78,0.00,,BKN026,0.01,VWS V14.01,2013-06-02 15:16:00,
2013-06-02 11:21:00,79.0,71.2,29.93,SW,218,1.0,4.0,77,0.00,,BKN026,0.01,VWS V14.01,2013-06-02 15:21:00,
2013-06-02 11:26:00,79.2,71.4,29.93,SW,226,1.0,2.0,77,0.00,,BKN026,0.01,VWS V14.01,2013-06-02 15:26:00,
2013-06-02 11:31:00,79.9,71.7,29.92,SSW,204,1.0,1.0,76,0.00,,BKN026,0.01,VWS V14.01,2013-06-02 15:31:00,
2013-06-02 11:36:00,80.7,70.8,29.92,South,181,2.0,3.0,72,0.00,,BKN026,0.01,VWS V14.01,2013-06-02 15:36:00,
2013-06-02 11:41:00,80.9,71.8,29.92,SW,231,0.0,2.0,74,0.00,,BKN026,0.01,VWS V14.01,2013-06-02 15:41:00,
2013-06-02 11:46:00,81.2,71.3,29.92,NW,307,2.0,4.0,72,0.00,,BKN026,0.01,VWS V14.01,2013-06-02 15:46:00,
2013-06-02 11:51:00,81.1,71.6,29.92,SW,232,0.0,3.0,73,0.00,,BKN026,0.01,VWS V14.01,2013-06-02 15:51:00,
2013-06-02 11:56:00,80.9,71.0,29.92,SW,233,0.0,5.0,72,0.00,,BKN026,0.01,VWS V14.01,2013-06-02 15:56:00,
2013-06-02 12:01:00,81.0,71.5,29.92,South,188,2.0,2.0,73,0.00,,BKN026,0.01,VWS V14.01,2013-06-02 16:01:00,
2013-06-02 12:06:00,80.6,70.8,29.92,South,187,0.0,4.0,72,0.00,,BKN035,0.01,VWS V14.01,2013-06-02 16:06:00,
2013-06-02 12:11:00,80.3,70.5,29.92,SSW,211,3.0,4.0,72,0.00,,BKN035,0.01,VWS V14.01,2013-06-02 16:11:00,
2013-06-02 12:16:00,80.4,71.4,29.92,West,266,1.0,3.0,74,0.00,,BKN035,0.01,VWS V14.01,2013-06-02 16:16:00,
2013-06-02 12:21:00,80.8,71.7,29.91,SW,235,2.0,2.0,74,0.00,,BKN035,0.01,VWS V14.01,2013-06-02 16:21:00,
2013-06-02 12:26:00,81.4,71.5,29.92,SSW,197,1.0,4.0,72,0.00,,BKN035,0.01,VWS V14.01,2013-06-02 16:26:00,
2013-06-02 12:31:00,82.0,71.7,29.91,South,181,0.0,5.0,71,0.00,,BKN035,0.01,VWS V14.01,2013-06-02 16:31:00,
2013-06-02 12:36:00,82.8,71.6,29.91,South,181,4.0,4.0,69,0.00,,BKN035,0.01,VWS V14.01,2013-06-02 16:36:00,
2013-06-02 12:41:00,82.3,70.3,29.92,SSE,160,1.0,6.0,67,0.00,,BKN035,0.01,VWS V14.01,2013-06-02 16:41:00,
2013-06-02 12:46:00,82.2,71.4,29.91,ENE,65,0.0,2.0,70,0.00,,BKN035,0.01,VWS V14.01,2013-06-02 16:46:00,
2013-06-02 12:51:00,82.5,71.7,29.91,SW,225,2.0,5.0,70,0.00,,BKN035,0.01,VWS V14.01,2013-06-02 16:51:00,
2013-06-02 12:56:00,82.6,71.0,29.91,SSW,195,0.0,6.0,68,0.00,,BKN035,0.01,VWS V14.01,2013-06-02 16:56:00,
2013-06-02 13:01:00,82.8,71.2,29.91,WSW,239,1.0,5.0,68,0.00,,BKN035,0.01,VWS V14.01,2013-06-02 17:01:00,
2013-06-02 13:06:00,83.1,70.6,29.91,SE,146,2.0,5.0,66,0.00,,BKN048,0.01,VWS V14.01,2013-06-02 17:06:00,
2013-06-02 13:11:00,83.1,70.1,29.91,SW,222,2.0,5.0,65,0.00,,BKN048,0.01,VWS V14.01,2013-06-02 17:11:00,
2013-06-02 13:16:00,82.8,70.3,29.90,WSW,238,2.0,3.0,66,0.00,,BKN048,0.01,VWS V14.01,2013-06-02 17:16:00,
2013-06-02 13:21:00,82.8,71.6,29.90,South,170,3.0,3.0,69,0.00,,BKN048,0.01,VWS V14.01,2013-06-02 17:21:00,
2013-06-02 13:26:00,83.1,71.4,29.90,South,189,1.0,3.0,68,0.00,,BKN048,0.01,VWS V14.01,2013-06-02 17:26:00,
2013-06-02 13:31:00,83.7,71.1,29.90,South,187,0.0,3.0,66,0.00,,BKN048,0.01,VWS V14.01,2013-06-02 17:31:00,
2013-06-02 13:36:00,84.1,71.1,29.90,SSW,211,0.0,5.0,65,0.00,,BKN048,0.01,VWS V14.01,2013-06-02 17:36:00,
2013-06-02 13:41:00,83.7,71.1,29.89,SW,225,2.0,5.0,66,0.00,,BKN048,0.01,VWS V14.01,2013-06-02 17:41:00,
2013-06-02 13:46:00,84.1,71.1,29.89,SW,222,2.0,4.0,65,0.00,,BKN048,0.01,VWS V14.01,2013-06-02 17:46:00,
2013-06-02 13:51:00,84.7,71.6,29.89,SW,231,2.0,3.0,65,0.00,,BKN048,0.01,VWS V14.01,2013-06-02 17:51:00,
2013-06-02 13:56:00,84.8,71.3,29.88,SW,217,1.0,3.0,64,0.00,,BKN048,0.01,VWS V14.01,2013-06-02 17:56:00,
2013-06-02 14:01:00,84.8,70.3,29.88,WSW,246,1.0,6.0,62,0.00,,BKN048,0.01,VWS V14.01,2013-06-02 18:01:00,
2013-06-02 14:06:00,84.5,70.1,29.88,West,259,4.0,5.0,62,0.00,,BKN050,0.01,VWS V14.01,2013-06-02 18:06:00,
2013-06-02 14:11:00,84.4,70.4,29.87,SSE,165,2.0,4.0,63,0.00,,BKN050,0.01,VWS V14.01,2013-06-02 18:11:00,
2013-06-02 14:16:00,84.8,71.3,29.87,SSW,199,3.0,5.0,64,0.00,,BKN050,0.01,VWS V14.01,2013-06-02 18:16:00,
2013-06-02 14:21:00,85.1,70.2,29.87,South,183,0.0,5.0,61,0.00,,BKN050,0.01,VWS V14.01,2013-06-02 18:21:00,
2013-06-02 14:26:00,85.1,71.6,29.87,SW,224,1.0,4.0,64,0.00,,BKN050,0.01,VWS V14.01,2013-06-02 18:26:00,
2013-06-02 14:31:00,85.6,72.5,29.87,SSW,205,0.0,5.0,65,0.00,,BKN050,0.01,VWS V14.01,2013-06-02 18:31:00,
2013-06-02 14:36:00,87.1,71.5,29.86,SW,229,2.0,2.0,60,0.00,,BKN050,0.01,VWS V14.01,2013-06-02 18:36:00,
2013-06-02 14:41:00,88.0,71.4,29.86,South,179,2.0,3.0,58,0.00,,BKN050,0.01,VWS V14.01,2013-06-02 18:41:00,
2013-06-02 14:46:00,87.4,70.3,29.87,SW,218,1.0,4.0,57,0.00,,BKN050,0.01,VWS V14.01,2013-06-02 18:46:00,
2013-06-02 14:51:00,87.0,71.4,29.87,South,173,2.0,3.0,60,0.00,,BKN050,0.01,VWS V14.01,2013-06-02 18:51:00,
2013-06-02 14:56:00,86.4,70.4,29.86,SW,226,1.0,3.0,59,0.00,,BKN050,0.01,VWS V14.01,2013-06-02 18:56:00,
2013-06-02 15:01:00,86.1,71.1,29.86,SW,222,0.0,2.0,61,0.00,,BKN050,0.01,VWS V14.01,2013-06-02 19:01:00,
2013-06-02 15:06:00,85.0,70.5,29.86,SW,228,1.0,2.0,62,0.00,,RA,0.01,VWS V14.01,2013-06-02 19:06:00,
2013-06-02 15:11:00,84.0,70.5,29.87,South,172,0.0,2.0,64,0.00,,RA,0.01,VWS V14.01,2013-06-02 19:11:00,
2013-06-02 15:16:00,83.2,70.2,29.87,SW,229,2.0,3.0,65,0.00,,RA,0.01,VWS V14.01,2013-06-02 19:16:00,
2013-06-02 15:21:00,82.4,70.3,29.87,SW,235,1.0,3.0,67,0.00,,RA,0.01,VWS V14.01,2013-06-02 19:21:00,
2013-06-02 15:26:00,81.9,69.9,29.87,SSW,208,1.0,2.0,67,0.00,,RA,0.01,VWS V14.01,2013-06-02 19:26:00,
2013-06-02 15:31:00,81.1,72.4,29.87,SW,231,1.0,2.0,75,0.02,,RA,0.03,VWS V14.01,2013-06-02 19:31:00,
2013-06-02 15:36:00,79.0,72.3,29.88,West,267,1.0,2.0,80,0.02,,BKN150,0.03,VWS V14.01,2013-06-02 19:36:00,
2013-06-02 15:41:00,77.1,71.9,29.89,SSW,195,1.0,2.0,84,0.08,,BKN150,0.09,VWS V14.01,2013-06-02 19:41:00,
2013-06-02 15:46:00,75.3,70.1,29.89,SW,214,3.0,5.0,84,0.10,,BKN150,0.11,VWS V14.01,2013-06-02 19:46:00,
2013-06-02 15:51:00,73.7,69.3,29.89,SW,221,0.0,2.0,86,0.10,,BKN150,0.11,VWS V14.01,2013-06-02 19:51:00,
2013-06-02 15:56:00,72.7,68.6,29.89,South,174,3.0,3.0,87,0.11,,BKN150,0.12,VWS V14.01,2013-06-02 19:56:00,
2013-06-02 16:01:00,71.7,67.6,29.89,South,174,1.0,3.0,87,0.11,,BKN150,0.12,VWS V14.01,2013-06-02 20:01:00,
2013-06-02 16:06:00,71.2,67.8,29.88,SW,229,0.0,2.0,89,0.12,,BKN150,0.13,VWS V14.01,2013-06-02 20:06:00,
2013-06-02 16:11:00,71.0,67.9,29.87,SSE,159,0.0,1.0,90,0.12,,BKN150,0.13,VWS V14.01,2013-06-02 20:11:00,
2013-06-02 16:16:00,71.0,68.6,29.87,SSE,159,0.0,0.0,92,0.12,,BKN150,0.13,VWS V14.01,2013-06-02 20:16:00,
2013-06-02 16:21:00,71.4,68.6,29.87,SSE,160,0.0,0.0,91,0.12,,BKN150,0.13,VWS V14.01,2013-06-02 20:21:00,
2013-06-02 16:26:00,71.5,68.1,29.86,South,169,0.0,0.0,89,0.12,,BKN150,0.13,VWS V14.01,2013-06-02 20:26:00,
2013-06-02 16:31:00,72.5,69.1,29.86,SW,215,1.0,2.0,89,0.12,,BKN150,0.13,VWS V14.01,2013-06-02 20:31:00,
2013-06-02 16:36:00,74.1,70.7,29.86,SSW,205,2.0,2.0,89,0.10,,BKN150,0.13,VWS V14.01,2013-06-02 20:36:00,
2013-06-02 16:41:00,75.5,71.7,29.85,SSE,166,0.0,1.0,88,0.10,,BKN150,0.13,VWS V14.01,2013-06-02 20:41:00,
2013-06-02 16:46:00,76.7,71.5,29.85,SW,220,0.0,1.0,84,0.03,,BKN150,0.13,VWS V14.01,2013-06-02 20:46:00,
2013-06-02 16:51:00,77.7,71.4,29.84,South,169,0.0,1.0,81,0.02,,BKN150,0.13,VWS V14.01,2013-06-02 20:51:00,
2013-06-02 16:56:00,78.0,72.1,29.84,SW,228,0.0,2.0,82,0.02,,BKN150,0.13,VWS V14.01,2013-06-02 20:56:00,
2013-06-02 17:01:00,78.4,72.1,29.83,SSW,197,0.0,1.0,81,0.01,,BKN150,0.13,VWS V14.01,2013-06-02 21:01:00,
2013-06-02 17:06:00,79.4,73.4,29.83,SSW,198,0.0,1.0,82,0.00,,BKN150,0.13,VWS V14.01,2013-06-02 21:06:00,
2013-06-02 17:11:00,79.9,72.1,29.83,SSW,198,0.0,3.0,77,0.00,,BKN150,0.13,VWS V14.01,2013-06-02 21:11:00,
2013-06-02 17:16:00,80.5,72.6,29.83,West,259,1.0,1.0,77,0.00,,BKN150,0.13,VWS V14.01,2013-06-02 21:16:00,
2013-06-02 17:21:00,81.3,73.4,29.83,SW,219,1.0,1.0,77,0.00,,BKN150,0.13,VWS V14.01,2013-06-02 21:21:00,
2013-06-02 17:26:00,81.3,72.2,29.83,SSW,211,1.0,3.0,74,0.00,,BKN150,0.13,VWS V14.01,2013-06-02 21:26:00,
2013-06-02 17:31:00,81.6,73.3,29.84,SSE,165,0.0,1.0,76,0.00,,BKN150,0.13,VWS V14.01,2013-06-02 21:31:00,
2013-06-02 17:36:00,81.9,73.6,29.84,SW,226,0.0,1.0,76,0.00,,BKN150,0.13,VWS V14.01,2013-06-02 21:36:00,
2013-06-02 17:41:00,83.0,73.5,29.84,SW,226,0.0,1.0,73,0.00,,BKN150,0.13,VWS V14.01,2013-06-02 21:41:00,
2013-06-02 17:46:00,83.4,73.0,29.84,ESE,112,1.0,2.0,71,0.00,,BKN150,0.13,VWS V14.01,2013-06-02 21:46:00,
2013-06-02 17:51:00,83.3,72.5,29.84,ESE,105,0.0,1.0,70,0.00,,BKN150,0.13,VWS V14.01,2013-06-02 21:51:00,
2013-06-02 17:56:00,83.0,72.2,29.84,SSW,208,0.0,1.0,70,0.00,,BKN150,0.13,VWS V14.01,2013-06-02 21:56:00,
2013-06-02 18:01:00,83.5,72.7,29.83,SSW,205,0.0,1.0,70,0.00,,BKN150,0.13,VWS V14.01,2013-06-02 22:01:00,
2013-06-02 18:06:00,83.7,71.1,29.84,SW,225,1.0,2.0,66,0.00,,SCT030,0.13,VWS V14.01,2013-06-02 22:06:00,
2013-06-02 18:11:00,82.8,71.2,29.84,SW,225,0.0,1.0,68,0.00,,SCT030,0.13,VWS V14.01,2013-06-02 22:11:00,
2013-06-02 18:16:00,82.5,71.7,29.84,SW,221,1.0,1.0,70,0.00,,SCT030,0.13,VWS V14.01,2013-06-02 22:16:00,
2013-06-02 18:21:00,81.6,71.3,29.84,SW,217,1.0,1.0,71,0.00,,SCT030,0.13,VWS V14.01,2013-06-02 22:21:00,
2013-06-02 18:26:00,81.3,71.8,29.84,SW,217,0.0,0.0,73,0.00,,BKN026,0.13,VWS V14.01,2013-06-02 22:26:00,
2013-06-02 18:31:00,81.0,71.5,29.84,ENE,61,1.0,3.0,73,0.00,,BKN026,0.13,VWS V14.01,2013-06-02 22:31:00,
2013-06-02 18:36:00,79.7,71.5,29.83,East,86,0.0,2.0,76,0.00,,BKN025,0.13,VWS V14.01,2013-06-02 22:36:00,
2013-06-02 18:41:00,78.6,70.8,29.84,East,88,0.0,3.0,77,0.00,,BKN025,0.13,VWS V14.01,2013-06-02 22:41:00,
2013-06-02 18:46:00,77.6,70.9,29.85,East,84,1.0,1.0,80,0.00,,BKN025,0.13,VWS V14.01,2013-06-02 22:46:00,
2013-06-02 18:51:00,76.7,70.8,29.86,East,94,1.0,3.0,82,0.00,,BKN025,0.13,VWS V14.01,2013-06-02 22:51:00,
2013-06-02 18:56:00,76.0,71.2,29.86,NE,51,0.0,1.0,85,0.05,,BKN025,0.18,VWS V14.01,2013-06-02 22:56:00,
2013-06-02 19:01:00,75.4,71.3,29.86,NE,51,0.0,0.0,87,0.13,,BKN025,0.26,VWS V14.01,2013-06-02 23:01:00,
2013-06-02 19:06:00,74.8,71.3,29.86,SW,225,0.0,1.0,89,0.20,,BKN050,0.33,VWS V14.01,2013-06-02 23:06:00,
2013-06-02 19:11:00,73.9,70.5,29.88,SSW,207,1.0,5.0,89,0.30,,BKN050,0.43,VWS V14.01,2013-06-02 23:11:00,
2013-06-02 19:16:00,71.9,67.8,29.87,SSE,158,0.0,8.0,87,0.51,,BKN050,0.64,VWS V14.01,2013-06-02 23:16:00,
2013-06-02 19:21:00,70.9,67.5,29.87,ESE,103,0.0,5.0,89,0.60,,BKN050,0.73,VWS V14.01,2013-06-02 23:21:00,
2013-06-02 19:26:00,70.3,67.2,29.86,SW,228,1.0,2.0,90,0.65,,BKN050,0.78,VWS V14.01,2013-06-02 23:26:00,
2013-06-02 19:31:00,69.8,66.7,29.85,East,88,1.0,2.0,90,0.69,,BKN050,0.82,VWS V14.01,2013-06-02 23:31:00,
2013-06-02 19:36:00,69.4,66.7,29.85,SW,224,0.0,2.0,91,0.72,,BKN050,0.85,VWS V14.01,2013-06-02 23:36:00,
2013-06-02 19:41:00,69.2,66.8,29.86,SW,236,0.0,2.0,92,0.73,,BKN050,0.86,VWS V14.01,2013-06-02 23:41:00,
2013-06-02 19:46:00,69.2,67.1,29.86,SW,217,2.0,3.0,93,0.76,,BKN050,0.89,VWS V14.01,2013-06-02 23:46:00,
2013-06-02 19:51:00,69.2,67.1,29.85,SSE,165,0.0,2.0,93,0.78,,BKN050,0.91,VWS V14.01,2013-06-02 23:51:00,
2013-06-02 19:56:00,69.1,67.0,29.86,West,260,0.0,1.0,93,0.78,,BKN050,0.91,VWS V14.01,2013-06-02 23:56:00,
2013-06-02 20:01:00,69.1,67.0,29.88,NW,311,0.0,1.0,93,0.72,,BKN050,0.91,VWS V14.01,2013-06-03 00:01:00,
2013-06-02 20:06:00,69.3,67.5,29.89,North,350,0.0,1.0,94,0.63,,BKN060,0.91,VWS V14.01,2013-06-03 00:06:00,
2013-06-02 20:11:00,69.6,68.1,29.88,NNE,22,1.0,1.0,95,0.57,,BKN060,0.91,VWS V14.01,2013-06-03 00:11:00,
2013-06-02 20:16:00,69.6,68.1,29.88,NNE,22,0.0,1.0,95,0.46,,BKN060,0.91,VWS V14.01,2013-06-03 00:16:00,
2013-06-02 20:21:00,69.6,68.1,29.88,ENE,72,0.0,1.0,95,0.24,,BKN060,0.91,VWS V14.01,2013-06-03 00:21:00,
2013-06-02 20:26:00,69.6,68.1,29.88,ESE,113,0.0,1.0,95,0.17,,BKN060,0.91,VWS V14.01,2013-06-03 00:26:00,
2013-06-02 20:31:00,69.7,68.2,29.88,East,101,1.0,1.0,95,0.12,,BKN060,0.91,VWS V14.01,2013-06-03 00:31:00,
2013-06-02 20:36:00,69.5,68.0,29.88,East,80,0.0,2.0,95,0.08,,BKN060,0.91,VWS V14.01,2013-06-03 00:36:00,
2013-06-02 20:41:00,69.5,68.0,29.88,East,80,0.0,0.0,95,0.06,,BKN060,0.91,VWS V14.01,2013-06-03 00:41:00,
2013-06-02 20:46:00,69.4,67.9,29.88,East,80,0.0,0.0,95,0.05,,BKN060,0.91,VWS V14.01,2013-06-03 00:46:00,
2013-06-02 20:51:00,69.3,67.8,29.88,East,80,0.0,0.0,95,0.01,,BKN060,0.91,VWS V14.01,2013-06-03 00:51:00,
2013-06-02 20:56:00,69.2,67.7,29.88,East,81,0.0,1.0,95,0.00,,BKN060,0.91,VWS V14.01,2013-06-03 00:56:00,
2013-06-02 21:01:00,69.0,67.5,29.88,ENE,78,1.0,1.0,95,0.00,,BKN060,0.91,VWS V14.01,2013-06-03 01:01:00,
2013-06-02 21:06:00,69.0,67.5,29.88,North,1,0.0,1.0,95,0.00,,SCT050,0.91,VWS V14.01,2013-06-03 01:06:00,
2013-06-02 21:11:00,68.9,67.4,29.88,North,1,0.0,0.0,95,0.00,,SCT050,0.91,VWS V14.01,2013-06-03 01:11:00,
2013-06-02 21:16:00,68.9,67.4,29.89,North,1,0.0,0.0,95,0.00,,SCT050,0.91,VWS V14.01,2013-06-03 01:16:00,
2013-06-02 21:21:00,68.6,67.1,29.89,North,1,0.0,0.0,95,0.00,,SCT050,0.91,VWS V14.01,2013-06-03 01:21:00,
2013-06-02 21:26:00,68.4,66.9,29.89,North,1,0.0,0.0,95,0.00,,SCT050,0.91,VWS V14.01,2013-06-03 01:26:00,
2013-06-02 21:31:00,68.4,67.2,29.89,North,1,0.0,0.0,96,0.00,,SCT050,0.91,VWS V14.01,2013-06-03 01:31:00,
2013-06-02 21:36:00,68.4,67.2,29.89,North,1,0.0,0.0,96,0.00,,SCT050,0.91,VWS V14.01,2013-06-03 01:36:00,
2013-06-02 21:41:00,68.3,67.1,29.89,North,1,0.0,0.0,96,0.00,,SCT050,0.91,VWS V14.01,2013-06-03 01:41:00,
2013-06-02 21:46:00,68.3,67.1,29.89,NE,43,0.0,1.0,96,0.00,,SCT050,0.91,VWS V14.01,2013-06-03 01:46:00,
2013-06-02 21:51:00,68.3,67.1,29.89,NE,42,0.0,0.0,96,0.00,,SCT050,0.91,VWS V14.01,2013-06-03 01:51:00,
2013-06-02 21:56:00,68.3,67.1,29.89,NE,43,0.0,0.0,96,0.00,,SCT050,0.91,VWS V14.01,2013-06-03 01:56:00,
2013-06-02 22:01:00,68.3,67.1,29.89,NE,43,0.0,0.0,96,0.00,,SCT050,0.91,VWS V14.01,2013-06-03 02:01:00,
2013-06-02 22:06:00,68.3,67.1,29.90,NE,42,0.0,0.0,96,0.00,,SCT038,0.91,VWS V14.01,2013-06-03 02:06:00,
2013-06-02 22:11:00,68.1,66.9,29.90,NE,42,0.0,0.0,96,0.00,,SCT038,0.91,VWS V14.01,2013-06-03 02:11:00,
2013-06-02 22:16:00,67.9,66.7,29.90,NE,42,0.0,0.0,96,0.00,,SCT038,0.91,VWS V14.01,2013-06-03 02:16:00,
2013-06-02 22:21:00,67.8,66.6,29.89,NE,43,0.0,0.0,96,0.00,,SCT038,0.91,VWS V14.01,2013-06-03 02:21:00,
2013-06-02 22:26:00,68.0,67.1,29.89,NE,42,0.0,0.0,97,0.00,,SCT038,0.91,VWS V14.01,2013-06-03 02:26:00,
2013-06-02 22:31:00,67.8,66.6,29.89,NE,43,0.0,0.0,96,0.00,,SCT038,0.91,VWS V14.01,2013-06-03 02:31:00,
2013-06-02 22:36:00,67.7,66.5,29.89,NE,42,0.0,0.0,96,0.00,,SCT038,0.91,VWS V14.01,2013-06-03 02:36:00,
2013-06-02 22:41:00,67.7,66.8,29.89,NE,47,0.0,1.0,97,0.00,,SCT038,0.91,VWS V14.01,2013-06-03 02:41:00,
2013-06-02 22:47:00,67.7,66.8,29.89,NE,47,0.0,0.0,97,0.00,,SCT038,0.91,VWS V14.01,2013-06-03 02:47:00,
2013-06-02 22:52:00,67.7,66.8,29.89,NE,47,0.0,0.0,97,0.00,,SCT038,0.91,VWS V14.01,2013-06-03 02:52:00,
2013-06-02 22:57:00,67.7,66.8,29.89,NE,47,0.0,0.0,97,0.00,,SCT038,0.91,VWS V14.01,2013-06-03 02:57:00,
2013-06-02 23:02:00,67.7,66.8,29.89,NE,47,0.0,0.0,97,0.00,,SCT038,0.91,VWS V14.01,2013-06-03 03:02:00,
2013-06-02 23:07:00,67.8,66.9,29.89,NE,46,0.0,0.0,97,0.00,,SCT032,0.91,VWS V14.01,2013-06-03 03:07:00,
2013-06-02 23:12:00,67.7,66.8,29.88,NE,46,0.0,0.0,97,0.00,,SCT032,0.91,VWS V14.01,2013-06-03 03:12:00,
2013-06-02 23:17:00,67.7,66.8,29.88,NE,46,0.0,0.0,97,0.00,,SCT032,0.91,VWS V14.01,2013-06-03 03:17:00,
2013-06-02 23:22:00,67.6,66.7,29.88,NE,46,0.0,0.0,97,0.00,,SCT032,0.91,VWS V14.01,2013-06-03 03:22:00,
2013-06-02 23:27:00,67.5,66.6,29.88,NE,46,0.0,0.0,97,0.00,,SCT032,0.91,VWS V14.01,2013-06-03 03:27:00,
2013-06-02 23:32:00,67.3,66.4,29.88,NE,46,0.0,0.0,97,0.00,,SCT032,0.91,VWS V14.01,2013-06-03 03:32:00,
2013-06-02 23:37:00,67.2,66.3,29.88,NE,46,0.0,0.0,97,0.00,,SCT032,0.91,VWS V14.01,2013-06-03 03:37:00,
2013-06-02 23:42:00,67.3,66.4,29.89,NE,46,0.0,0.0,97,0.00,,SCT032,0.91,VWS V14.01,2013-06-03 03:42:00,
2013-06-02 23:47:00,67.3,66.4,29.89,NE,46,0.0,0.0,97,0.00,,SCT032,0.91,VWS V14.01,2013-06-03 03:47:00,
2013-06-02 23:52:00,67.3,66.4,29.88,NE,46,0.0,0.0,97,0.00,,SCT032,0.91,VWS V14.01,2013-06-03 03:52:00,
2013-06-02 23:57:00,67.2,66.3,29.88,NE,46,0.0,0.0,97,0.00,,SCT032,0.91,VWS V14.01,2013-06-03 03:57:00,